Regional Weather Roundup
Issued by NWS Wakefield, VA

Home | Current Version | Previous Version | Text Only | Print | Product List | Glossary Off
Versions: 1 2 3 4 5 6 7 8 9 10 11 12 13 14 15 16 17 18 19 20 21 22 23 24 25 26 27 28 29 30 31 32 33 34 35 36 37 38 39 40 41 42 43 44 45 46 47 48 49 50

035
ASUS41 KAKQ 231514
RWRAKQ

REGIONAL WEATHER ROUNDUP
NATIONAL WEATHER SERVICE WAKEFIELD VA
1100 AM EDT THU MAR 23 2017

Note: "fair" indicates few or no clouds below 12,000 feet with no
significant weather and/or obstructions to visibility. * = Denotes
station may not report precipitation (e.g., rain,snow,etc.),
thunder or fog.

VAZ042-051-052>054-056-231600-
NORTHERN VIRGINIA

CITY           SKY/WX    TMP DP  RH WIND       PRES   REMARKS
WASH NATIONAL  SUNNY     36   3  25 CALM      30.68S
DULLES         SUNNY     35   3  26 N5        30.66R
FORT BELVOIR   SUNNY     37   3  25 CALM      30.67S
QUANTICO       SUNNY     36  10  34 NE8       30.69S
FREDERICKSBRG* SUNNY     38  11  33 N7        30.66S
STAFFORD*      SUNNY     35   8  31 NE3       30.70S
WARRENTON      SUNNY     38   0  19 E6        30.64S
CULPEPER*      SUNNY     38   9  30 N3        30.66S
MANASSAS*      SUNNY     37   8  30 N6        30.66S
LEESBURG*      SUNNY     36  10  35 CALM      30.67R
WINCHESTER     SUNNY     32   5  32 CALM      30.63R
FRONT ROYAL*   SUNNY     34   9  35 CALM      30.62R
LURAY*         SUNNY     36  14  41 N3        30.60R
$$

VAZ048-049-060>072-079>083-231600-
CENTRAL AND SOUTH CENTRAL VIRGINIA

CITY           SKY/WX    TMP DP  RH WIND       PRES   REMARKS
RICHMOND       MOSUNNY   39  11  31 VRB3      30.66R
CHESTERFIELD*  FAIR      39   5  24 E5        30.67R
PETERSBURG*    SUNNY     39   9  29 N6        30.66S
HANOVER        SUNNY     39  12  33 VRB5      30.67R
TAPPAHANNOCK*  SUNNY     37  -7  15 E7        30.67S
QUINTON*       FAIR      37  12  36 NE8       30.66R
CHARLOTTSVILLE SUNNY     39   7  26 CALM      30.62S
GORDONSVILLE*  SUNNY     37   7  29 CALM      30.64R
ORANGE*        SUNNY     36   9  32 N5        30.65S
LOUISA*        SUNNY     41  12  30 N7        30.62S
BUMPASS*       FAIR      37   9  30 NE5       30.64S
FARMVILLE*     SUNNY     41  14  33 SE5       30.63S
CREWE*         FAIR      39  13  34 N3        30.63S
FORT PICKETT*  FAIR      39   2  21 E6        30.63F
CHASE CITY*    FAIR      41  10  28 NE3       30.62F
CLARKSVILLE*   FAIR      41  19  42 NE6       30.62S
SOUTH HILL*    SUNNY     39  16  39 CALM      30.69S
LAWRENCEVILLE* FAIR      40  13  33 E6        30.63F
EMPORIA*       SUNNY     39  16  38 NE8       30.66S
$$

VAZ088>098-231600-
SOUTHEAST VIRGINIA

CITY           SKY/WX    TMP DP  RH WIND       PRES   REMARKS
NORFOLK        SUNNY     38  13  35 N17       30.66R
VIRGINIA BEACH SUNNY     39  15  37 NE13      30.65R
NORFOLK NAVAL  SUNNY     40  16  37 NE12      30.68R
WEST POINT*    SUNNY     38   8  29 SE3       30.69S
SALUDA*        FAIR      35  10  34 NE5       30.68R
NEWPORT NEWS   SUNNY     38  16  40 NE10G26   30.67R
LANGLEY AFB    MOSUNNY   37  17  44 NE13G21   30.66R
FORT EUSTIS    SUNNY     41  13  32 NE8       30.64R
WILLIAMSBURG*  SUNNY     45  18  33 CALM      30.67S
HR EXEC AP*    FAIR      41  16  36 NE8G16    30.64S
FRANKLIN*      SUNNY     40  13  33 NE6       30.66R
US460-WAKEFLD  SUNNY     39  13  34 E3        30.65S
$$

VAZ020-022-025-037-045-231600-
WEST CENTRAL AND SOUTHWEST VIRGINIA

CITY           SKY/WX    TMP DP  RH WIND       PRES   REMARKS
STAUNTON*      SUNNY     35  13  40 W3        30.60R
WAYNESBORO*    SUNNY     36  10  34 E5        30.57R
HOT SPRINGS VA SUNNY     32   5  32 SE9       30.43S
LYNCHBURG      SUNNY     38   7  27 CALM      30.62R
DANVILLE       SUNNY     42   8  24 VRB7      30.62R
SOUTH BOSTON*  FAIR      44  14  30 E5        30.63S
MARTINSVILLE   SUNNY     42   6  22 CALM      30.62S
ROANOKE        SUNNY     39   7  26 SE7       30.61S
BLACKSBURG     SUNNY     38  12  34 SE7       30.56S
DUBLIN*        SUNNY     41  14  33 S7        30.54S
MARION*        SUNNY     43  12  28 E12       30.50S
HILLSVILLE*    SUNNY     35   9  33 CALM      30.49S
RICHLANDS*     FAIR      46  16  31 CALM      30.42R
WISE*          SUNNY     46  16  29 CALM      30.42R
ABINGDON*      SUNNY     48  17  28 E10       30.44S
$$

MDZ021>025-VAZ099-100-231600-
SOUTHERN MARYLAND AND THE DELMARVA PENINSULA

CITY           SKY/WX    TMP DP  RH WIND       PRES   REMARKS
PATUXENT RIVER MOSUNNY   35  13  40 NE9       30.68R
BAY BRIDGE APT SUNNY     34  10  37 N7        30.68S
LEONARDTOWN    SUNNY     34   9  35 N6        30.68S
DOVER          SUNNY     33  11  40 N6        30.66R
GEORGETOWN     SUNNY     34  10  37 N6        30.67R
EASTON         SUNNY     36   3  25 CALM      30.71R
CAMBRIDGE      SUNNY     34   5  29 NE7       30.68R
SALISBURY      SUNNY     34  11  38 CALM      30.66S
OCEAN CITY     SUNNY     35  13  40 NE8       30.67R
WALLOPS ISLAND SUNNY     35  14  42 NE7       30.67R
ACCOMACK*      SUNNY     35   6  29 NE3       30.66S
$$

NCZ012>017-030>032-231600-
NORTH CENTRAL AND EASTERN NORTH CAROLINA

CITY           SKY/WX    TMP DP  RH WIND       PRES   REMARKS
ROANOKE RAPIDS FAIR      43  19  39 E5        30.64R
RALEIGH        MOSUNNY   46  16  30 E12       30.61R
ELIZABETH CITY SUNNY     43  21  41 NE15G21   30.64R
AHOSKIE*       NOT AVBL
EDENTON*       SUNNY     43  21  40 NE10G17   30.64S
CURRITUCK*     SUNNY     40  20  43 NE12G21   30.65R
KILL DEVIL HLS NOT AVBL
MANTEO         SUNNY     41  22  47 NE16      30.63S
CAPE HATTERAS  SUNNY     45  23  42 NE14G25   30.61R
TARBORO*       NOT AVBL
GOLDSBORO      SUNNY     45  20  37 NE8       30.60R
WASHINGTON     SUNNY     44  23  43 NE10G17   30.62S
GREENVILLE     SUNNY     45  21  39 NE12G18   30.61S
NEW BERN       SUNNY     46  25  43 NE12      30.62R
WILMINGTON     SUNNY     48  27  44 E14       30.59R
$$

VAZ048-231600-
ELSEWHERE

CITY           SKY/WX    TMP DP  RH WIND       PRES   REMARKS
HARRISBURG PA  SUNNY     33   9  36 MISG      30.63F
BALTIMORE      SUNNY     34   5  29 CALM      30.66R
ANNAPOLIS      SUNNY     36  10  34 N6        30.68R
ANDREWS AFB    SUNNY     34   3  26 CALM      30.65S
PHILADELPHIA   SUNNY     33   6  32 NW5       30.65S
HENDERSON NC   SUNNY     40  15  36 E7        30.61S
GREENSBORO     MOSUNNY   44   9  23 E6        30.57S
ROCKY MOUNT    SUNNY     44  19  36 N12       30.63R
$$

VAZ100-231600-
MARINE

STATION/POSITION TIME  TEMP    WIND        PRES    WAVE   SWELL
                       AIR SEA DIR/SP/G            HT/PER HT/PER
                 (UTC) (F)     (DEG/KT/KT) (MB)    (FT/S) (FT/S)
CAPE MAY NJ      1442   31 41  330/  7/  9 1037.9R
LEWES DE         1442   29 41   10/  6/  8 1038.5R
OCEAN-CITY-INLET 1442   31 41   20/ 10/ 12 1038.8R
WACHAPREAGUE VA  1442   33 44   60/  9/ 13 1038.2R
THOMAS POINT MD  1500   31 43   40/  4/  5   N/A
GOOSES REEF MD   1500   32 43   60/  8/ 12 1039.6    1/ 3
COVE POINT MD    1442   31      30/  8/ 10 1039.4R
SOLOMONS ISLAND  1442   33 45   20/  5/  9   N/A
BISHOPS HEAD MD  1442   32 41   20/  6/ 10 1039.0R
PINEY POINT MD   1448          110/  5/  7   N/A
POTOMAC MD       1500   32 44   30/  8/ 12 1038.3    1
CAMBRIDGE MD     1442   31 43   20/  4/  6 1038.2R
LEWISETTA VA     1442   33 47   70/  4/  6 1038.6R
RAPPAHANNOCK LGT 1448           10/ 10/ 13 1039.1R
STINGRAY PT      1450   31      50/ 12/ 16 1038.8R
YORK RVR RNG VA  1442   34      50/ 14/ 18 1038.0R
YORKTOWN VA      1442   35 48   50/ 10/ 14 1038.2R
JAMESTOWN VA     1500   36 50  110/  6/ 12   N/A
DOMINION TERM VA 1442   37      50/  4/  9 1038.4R
KIPTOPEKE VA     1448      46   30/  7/ 12   N/A
CHES BAY BRIDGE  1442   33 47   20/ 11/ 14 1038.5R
CAPE HENRY VA    1442   34      20/ 12/ 17   N/A
WILLOUBY STN VA  1442   34      20/ 13/ 16 1039.3R
S CRANEY ISL VA  1442   34      30/ 11/ 16 1038.1R
CAPE HENRY BUOY  1442      45                N/A     5/ 7
CAPE CHARLES BUO 1451      45                N/A     4/ 8
OFFSHORE WE BUOY 1451      45                N/A     6/ 8
64NM E OF VA BCH 1450   38 50   20/ 17/ 21 1036.5R   7/ 7   5/ 7
DUCK PIER NC     1442   37 47   30/ 19/ 22 1036.6R
44100 DUCK FRF   1435      47                N/A     7/ 8   2/11
44056 DUCK FRF   1430      47                N/A     6/ 8   2/11
OREGON INLET NC  1442   40 48   10/ 13/ 20 1036.8R
HATTERAS NC      1442   41 51   20/ 18/ 24 1035.9R
DIAMOND SHLS NC  1450   45 72   30/ 19/ 27 1035.7R   9/11   7/11
CAPE LOOKOUT NC  1500   44      30/ 20/ 23 1035.7R
$$




USA.gov is the U.S. government's official web portal to all federal, state and local government web resources and services.